WZZ45R LZIB-LWSK

Flight info

Callsign WZZ45R
Flight time N/A
Altitude 37000
Route VAMOG DCT BABIT DCT TADAM DCT REDVA UL616 KOGAT
Aircraft A20N/M-SDE2E3FGHIRWXY/LB1

Departure

Time N/A
Airport M. R. Štefánik Airport (LZIB)

Arrival

Time 2026-05-03 21:11
Airport Skopje International Airport (LWSK)
Time Latitude Longitude Altitude Speed Heading
2026-05-03 20:15 46.99527 18.21492 30585 ft 465 kts 153°
2026-05-03 20:15 46.96593 18.23504 30878 ft 466 kts 153°
2026-05-03 20:15 46.93692 18.25490 31221 ft 466 kts 153°
2026-05-03 20:15 46.90759 18.27495 31554 ft 466 kts 153°
2026-05-03 20:16 46.87821 18.29501 31866 ft 466 kts 153°
2026-05-03 20:16 46.84879 18.31508 32183 ft 467 kts 153°
2026-05-03 20:16 46.81935 18.33515 32480 ft 467 kts 153°
2026-05-03 20:16 46.78988 18.35520 32770 ft 468 kts 153°
2026-05-03 20:17 46.76035 18.37528 33061 ft 468 kts 153°
2026-05-03 20:17 46.73078 18.39535 33350 ft 469 kts 153°
2026-05-03 20:17 46.70121 18.41540 33625 ft 469 kts 153°
2026-05-03 20:17 46.67159 18.43547 33894 ft 470 kts 153°
2026-05-03 20:18 46.64195 18.45551 34173 ft 470 kts 153°
2026-05-03 20:18 46.61232 18.47553 34419 ft 470 kts 153°
2026-05-03 20:18 46.58267 18.49554 34674 ft 469 kts 153°
2026-05-03 20:18 46.55303 18.51551 34905 ft 469 kts 153°
2026-05-03 20:19 46.52344 18.53543 35158 ft 468 kts 153°
2026-05-03 20:19 46.49385 18.55532 35401 ft 468 kts 153°
2026-05-03 20:19 46.46433 18.57515 35621 ft 468 kts 153°
2026-05-03 20:19 46.43476 18.59497 35847 ft 468 kts 153°
2026-05-03 20:20 46.40529 18.61472 36066 ft 467 kts 153°
2026-05-03 20:20 46.34642 18.65410 36142 ft 469 kts 153°
2026-05-03 20:21 46.28721 18.69360 36137 ft 468 kts 153°
2026-05-03 20:21 46.22808 18.73295 36137 ft 468 kts 153°
2026-05-03 20:22 46.16884 18.77229 36139 ft 468 kts 153°
2026-05-03 20:22 46.10963 18.81151 36140 ft 469 kts 153°
2026-05-03 20:23 46.05033 18.85070 36141 ft 469 kts 153°
2026-05-03 20:23 45.99101 18.88981 36139 ft 469 kts 153°
2026-05-03 20:24 45.93219 18.93027 36146 ft 467 kts 147°
2026-05-03 20:24 45.87709 18.97823 36147 ft 466 kts 145°
2026-05-03 20:25 45.82233 19.02809 36144 ft 466 kts 144°
2026-05-03 20:25 45.76767 19.07815 36140 ft 466 kts 144°
2026-05-03 20:26 45.71296 19.12798 36150 ft 466 kts 144°
2026-05-03 20:26 45.65820 19.17758 36156 ft 466 kts 144°
2026-05-03 20:27 45.60336 19.22709 36157 ft 466 kts 144°
2026-05-03 20:27 45.54851 19.27650 36150 ft 466 kts 144°
2026-05-03 20:28 45.49365 19.32580 36153 ft 466 kts 144°
2026-05-03 20:28 45.43877 19.37501 36151 ft 466 kts 144°
2026-05-03 20:29 45.38384 19.42417 36160 ft 466 kts 144°
2026-05-03 20:29 45.32887 19.47323 36160 ft 467 kts 144°
2026-05-03 20:30 45.27385 19.52222 36157 ft 467 kts 144°
2026-05-03 20:30 45.21480 19.56134 36157 ft 471 kts 156°
2026-05-03 20:31 45.15294 19.59252 36160 ft 472 kts 159°
2026-05-03 20:31 45.09058 19.62213 36158 ft 473 kts 159°
2026-05-03 20:32 45.02818 19.65173 36163 ft 473 kts 159°
2026-05-03 20:32 44.96572 19.68158 36162 ft 474 kts 159°
2026-05-03 20:33 44.90331 19.71148 36161 ft 474 kts 159°
2026-05-03 20:33 44.84083 19.74136 36163 ft 474 kts 159°
2026-05-03 20:34 44.77833 19.77116 36163 ft 474 kts 159°
2026-05-03 20:34 44.71590 19.80086 36163 ft 474 kts 159°
2026-05-03 20:35 44.65379 19.83034 36160 ft 474 kts 159°
2026-05-03 20:35 44.59138 19.85989 36155 ft 474 kts 159°
2026-05-03 20:36 44.52891 19.88941 36159 ft 473 kts 159°
2026-05-03 20:36 44.46644 19.91886 36160 ft 473 kts 159°
2026-05-03 20:37 44.40401 19.94822 36160 ft 473 kts 159°
2026-05-03 20:37 44.34153 19.97754 36158 ft 474 kts 159°
2026-05-03 20:38 44.27903 20.00680 36165 ft 474 kts 159°
2026-05-03 20:38 44.21684 20.03586 36163 ft 474 kts 159°
2026-05-03 20:39 44.15423 20.06504 36167 ft 475 kts 159°
2026-05-03 20:39 44.09154 20.09420 36165 ft 475 kts 159°
2026-05-03 20:40 44.02873 20.12334 36166 ft 475 kts 159°
2026-05-03 20:40 43.96597 20.15239 36166 ft 475 kts 159°
2026-05-03 20:41 43.90322 20.18137 36173 ft 475 kts 159°
2026-05-03 20:41 43.84039 20.21033 36177 ft 475 kts 159°
2026-05-03 20:42 43.77755 20.23923 36183 ft 475 kts 159°
2026-05-03 20:42 43.71467 20.26808 36182 ft 476 kts 159°
2026-05-03 20:43 43.65219 20.29668 36183 ft 476 kts 159°
2026-05-03 20:43 43.58917 20.32548 36191 ft 477 kts 159°
2026-05-03 20:44 43.52616 20.35421 36192 ft 477 kts 159°
2026-05-03 20:44 43.46314 20.38287 36201 ft 477 kts 159°
2026-05-03 20:45 43.40007 20.41149 36192 ft 477 kts 159°
2026-05-03 20:45 43.33692 20.44008 36200 ft 478 kts 159°
2026-05-03 20:46 43.27368 20.46866 36194 ft 478 kts 159°
2026-05-03 20:46 43.21038 20.49719 36199 ft 478 kts 159°
2026-05-03 20:47 43.14744 20.52549 36202 ft 474 kts 159°
2026-05-03 20:47 43.08477 20.55363 36003 ft 474 kts 159°
2026-05-03 20:47 43.05334 20.56772 35471 ft 475 kts 159°
2026-05-03 20:48 43.02191 20.58182 34923 ft 476 kts 158°
2026-05-03 20:48 42.99078 20.59729 34381 ft 476 kts 155°
2026-05-03 20:48 42.96022 20.61344 33792 ft 478 kts 155°
2026-05-03 20:48 42.92917 20.62997 33185 ft 480 kts 155°
2026-05-03 20:49 42.89805 20.64649 32577 ft 481 kts 155°
2026-05-03 20:49 42.86678 20.66303 32014 ft 482 kts 155°
2026-05-03 20:49 42.83543 20.67958 31454 ft 483 kts 155°
2026-05-03 20:49 42.80400 20.69614 30940 ft 484 kts 155°
2026-05-03 20:50 42.77253 20.71268 30454 ft 485 kts 155°
2026-05-03 20:50 42.74103 20.72923 29921 ft 485 kts 155°
2026-05-03 20:50 42.70961 20.74569 29362 ft 483 kts 155°
2026-05-03 20:50 42.67828 20.76210 28819 ft 483 kts 155°
2026-05-03 20:51 42.64689 20.77854 28281 ft 484 kts 154°
2026-05-03 20:51 42.61539 20.79501 27753 ft 486 kts 154°
2026-05-03 20:51 42.58377 20.81152 27239 ft 487 kts 154°
2026-05-03 20:51 42.55212 20.82803 26731 ft 488 kts 154°
2026-05-03 20:52 42.52040 20.84456 26239 ft 489 kts 154°
2026-05-03 20:52 42.48864 20.86110 25738 ft 490 kts 154°
2026-05-03 20:52 42.45679 20.87766 25253 ft 490 kts 154°
2026-05-03 20:52 42.42494 20.89419 24769 ft 491 kts 154°
2026-05-03 20:53 42.39297 20.91078 24312 ft 492 kts 154°
2026-05-03 20:53 42.37187 20.92171 24004 ft 489 kts 154°
2026-05-03 20:53 42.34038 20.93798 23502 ft 480 kts 154°
2026-05-03 20:53 42.30951 20.95390 22962 ft 468 kts 154°
2026-05-03 20:54 42.27965 20.96927 22435 ft 451 kts 154°
2026-05-03 20:54 42.22156 20.99928 21235 ft 449 kts 154°
2026-05-03 20:54 42.19241 21.01437 20677 ft 448 kts 154°
2026-05-03 20:55 42.16330 21.02937 20164 ft 448 kts 154°
2026-05-03 20:55 42.13483 21.04598 19691 ft 442 kts 144°
2026-05-03 20:55 42.11119 21.07112 19244 ft 427 kts 126°
2026-05-03 20:55 42.09524 21.10373 18795 ft 412 kts 108°
2026-05-03 20:56 42.08445 21.13928 18333 ft 410 kts 104°
2026-05-03 20:56 42.07436 21.17526 17831 ft 412 kts 104°
2026-05-03 20:56 42.06407 21.21097 17215 ft 404 kts 105°
2026-05-03 20:56 42.05380 21.24546 16633 ft 389 kts 106°
2026-05-03 20:57 42.04382 21.27837 16098 ft 371 kts 106°
2026-05-03 20:57 42.03423 21.30974 15582 ft 355 kts 106°
2026-05-03 20:57 42.02496 21.33997 15080 ft 343 kts 106°
2026-05-03 20:57 42.01601 21.36911 14574 ft 332 kts 106°
2026-05-03 20:58 42.00730 21.39738 14081 ft 323 kts 106°
2026-05-03 20:58 41.99880 21.42494 13528 ft 315 kts 106°
2026-05-03 20:58 41.99049 21.45184 12975 ft 308 kts 107°
2026-05-03 20:58 41.98167 21.47777 12423 ft 306 kts 118°
2026-05-03 20:59 41.96693 21.49856 11896 ft 309 kts 137°
2026-05-03 20:59 41.94950 21.51529 11368 ft 306 kts 144°
2026-05-03 20:59 41.93159 21.52976 10853 ft 303 kts 147°
2026-05-03 20:59 41.91318 21.54334 10337 ft 300 kts 149°
2026-05-03 21:00 41.89469 21.55630 9775 ft 297 kts 150°
2026-05-03 21:00 41.88231 21.56476 9410 ft 294 kts 151°
2026-05-03 21:00 41.85836 21.58085 8717 ft 288 kts 152°
2026-05-03 21:00 41.84060 21.59265 8233 ft 282 kts 152°
2026-05-03 21:01 41.82318 21.60416 7779 ft 276 kts 152°
2026-05-03 21:01 41.80607 21.61544 7325 ft 272 kts 152°
2026-05-03 21:01 41.78922 21.62651 6882 ft 268 kts 153°
2026-05-03 21:01 41.77266 21.63739 6468 ft 262 kts 153°
2026-05-03 21:02 41.75644 21.64804 6055 ft 258 kts 153°
2026-05-03 21:02 41.74048 21.65850 5634 ft 253 kts 153°
2026-05-03 21:02 41.72480 21.66877 5224 ft 249 kts 153°
2026-05-03 21:02 41.70953 21.67877 4942 ft 240 kts 153°
2026-05-03 21:03 41.69475 21.68843 4661 ft 236 kts 153°
2026-05-03 21:03 41.67995 21.69782 4220 ft 235 kts 159°
2026-05-03 21:03 41.66424 21.70372 3785 ft 234 kts 160°
2026-05-03 21:03 41.65133 21.71566 3419 ft 224 kts 121°
2026-05-03 21:04 41.64752 21.73494 3006 ft 215 kts 78°
2026-05-03 21:04 41.65434 21.75176 2625 ft 208 kts 35°
2026-05-03 21:04 41.66773 21.75723 2242 ft 205 kts 353°
2026-05-03 21:04 41.68175 21.75574 2914 ft 200 kts 355°
2026-05-03 21:05 41.69583 21.75349 3510 ft 216 kts 348°
2026-05-03 21:05 41.70910 21.74412 3599 ft 213 kts 323°
2026-05-03 21:05 41.71987 21.73226 3594 ft 189 kts 321°
2026-05-03 21:05 41.72949 21.72110 3588 ft 180 kts 321°
2026-05-03 21:06 41.73895 21.71020 3584 ft 179 kts 322°
2026-05-03 21:06 41.74901 21.70040 3583 ft 179 kts 330°
2026-05-03 21:06 41.76005 21.69290 3583 ft 178 kts 339°
2026-05-03 21:06 41.77177 21.68760 3579 ft 178 kts 344°
2026-05-03 21:07 41.78357 21.68325 3580 ft 172 kts 346°
2026-05-03 21:07 41.79498 21.67932 3585 ft 169 kts 346°
2026-05-03 21:07 41.80637 21.67535 3590 ft 168 kts 346°
2026-05-03 21:07 41.81705 21.67157 3576 ft 150 kts 346°
2026-05-03 21:08 41.82700 21.66804 3585 ft 148 kts 346°
2026-05-03 21:08 41.83694 21.66458 3442 ft 146 kts 346°
2026-05-03 21:08 41.84683 21.66118 3207 ft 147 kts 346°
2026-05-03 21:08 41.85672 21.65777 2972 ft 147 kts 346°
2026-05-03 21:09 41.86649 21.65438 2783 ft 145 kts 346°
2026-05-03 21:09 41.87621 21.65102 2531 ft 145 kts 347°
2026-05-03 21:09 41.88624 21.64755 2270 ft 149 kts 347°
2026-05-03 21:09 41.89633 21.64405 2031 ft 150 kts 347°
2026-05-03 21:10 41.90636 21.64058 1807 ft 152 kts 346°
2026-05-03 21:10 41.91661 21.63703 1579 ft 152 kts 346°
2026-05-03 21:10 41.92684 21.63348 1329 ft 153 kts 346°
2026-05-03 21:10 41.93703 21.62995 1052 ft 149 kts 345°
2026-05-03 21:11 41.94717 21.62645 829 ft 151 kts 346°
2026-05-03 21:11 41.95666 21.62317 782 ft 118 kts 345°
2026-05-03 21:11 41.96173 21.62140 788 ft 43 kts 345°
2026-05-03 21:11 41.96345 21.62080 789 ft 20 kts 345°
2026-05-03 21:12 41.96434 21.62048 789 ft 9 kts 345°
2026-05-03 21:12 41.96489 21.62067 789 ft 8 kts 47°
2026-05-03 21:12 41.96509 21.62133 789 ft 8 kts 74°
2026-05-03 21:12 41.96526 21.62232 789 ft 13 kts 84°
2026-05-03 21:13 41.96478 21.62298 788 ft 10 kts 161°
2026-05-03 21:13 41.96398 21.62330 788 ft 16 kts 165°
2026-05-03 21:13 41.96287 21.62370 787 ft 17 kts 165°
2026-05-03 21:13 41.96171 21.62407 787 ft 11 kts 166°
2026-05-03 21:14 41.96126 21.62466 786 ft 10 kts 91°
2026-05-03 21:14 41.96138 21.62535 786 ft 5 kts 80°
2026-05-03 21:14 41.96140 21.62550 786 ft 2 kts 79°
2026-05-03 21:14 41.96142 21.62565 786 ft 0 kts 79°